Time,TemperatureF,DewpointF,PressureIn,WindDirection,WindDirectionDegrees,WindSpeedMPH,WindSpeedGustMPH,Humidity,HourlyPrecipIn,Conditions,Clouds,dailyrainin,SoftwareType,DateUTC
2013-04-20 00:01:00,58.2,58.0,29.69,South,190,2.0,11.0,98,0.02,,,0.00,oem by Ross Wheeler,2013-04-20 04:01:00,
2013-04-20 00:05:00,58.2,58.0,29.68,NW,305,8.0,12.0,98,0.03,,,0.01,oem by Ross Wheeler,2013-04-20 04:05:00,
2013-04-20 00:10:00,58.6,58.0,29.68,South,181,3.0,12.0,99,0.06,,,0.04,oem by Ross Wheeler,2013-04-20 04:10:00,
2013-04-20 00:13:00,58.2,58.0,29.68,South,190,5.0,12.0,98,0.08,,,0.06,weatherlink.com 1.10,2013-04-20 04:13:00,
2013-04-20 00:20:00,57.7,57.0,29.68,West,270,6.0,13.0,98,0.13,,,0.11,oem by Ross Wheeler,2013-04-20 04:20:00,
2013-04-20 00:25:00,57.5,57.0,29.68,South,183,3.0,12.0,98,0.17,,,0.15,oem by Ross Wheeler,2013-04-20 04:25:00,
2013-04-20 00:31:00,57.2,57.0,29.68,SSE,150,4.0,8.0,98,0.20,,,0.19,oem by Ross Wheeler,2013-04-20 04:31:00,
2013-04-20 00:40:00,56.7,56.0,29.69,ENE,69,2.0,11.0,98,0.22,,,0.21,oem by Ross Wheeler,2013-04-20 04:40:00,
2013-04-20 00:43:00,56.7,56.0,29.68,South,180,4.0,11.0,98,0.24,,,0.23,weatherlink.com 1.10,2013-04-20 04:43:00,
2013-04-20 00:50:00,56.4,56.0,29.69,SE,141,2.0,7.0,98,0.25,,,0.24,oem by Ross Wheeler,2013-04-20 04:50:00,
2013-04-20 00:59:00,55.9,55.0,29.68,South,184,6.0,11.0,98,0.27,,,0.27,weatherlink.com 1.10,2013-04-20 04:59:00,
2013-04-20 01:06:00,56.6,56.0,29.67,WSW,240,3.0,10.0,98,0.29,,,0.30,oem by Ross Wheeler,2013-04-20 05:06:00,
2013-04-20 01:13:00,56.9,56.0,29.67,SE,142,2.0,11.0,98,0.27,,,0.33,weatherlink.com 1.10,2013-04-20 05:13:00,
2013-04-20 01:20:00,56.3,56.0,29.67,SE,139,2.0,7.0,98,0.22,,,0.33,oem by Ross Wheeler,2013-04-20 05:20:00,
2013-04-20 01:25:00,55.5,55.0,29.66,ESE,118,1.0,7.0,97,0.18,,,0.33,oem by Ross Wheeler,2013-04-20 05:25:00,
2013-04-20 01:31:00,55.2,55.0,29.67,SSW,192,2.0,8.0,98,0.14,,,0.33,oem by Ross Wheeler,2013-04-20 05:31:00,
2013-04-20 01:40:00,55.4,55.0,29.67,SE,142,2.0,9.0,98,0.12,,,0.33,oem by Ross Wheeler,2013-04-20 05:40:00,
2013-04-20 01:46:00,55.6,55.0,29.66,SSE,156,0.0,7.0,98,0.09,,,0.33,oem by Ross Wheeler,2013-04-20 05:46:00,
2013-04-20 01:55:00,55.7,55.0,29.66,South,186,2.0,8.0,98,0.08,,,0.33,oem by Ross Wheeler,2013-04-20 05:55:00,
2013-04-20 02:01:00,55.3,55.0,29.65,WNW,298,0.0,5.0,98,0.05,,,0.33,oem by Ross Wheeler,2013-04-20 06:01:00,
2013-04-20 02:10:00,55.2,55.0,29.65,West,280,3.0,5.0,98,0.01,,,0.33,oem by Ross Wheeler,2013-04-20 06:10:00,
2013-04-20 02:16:00,55.0,55.0,29.65,WSW,253,2.0,7.0,98,0.00,,,0.33,oem by Ross Wheeler,2013-04-20 06:16:00,
2013-04-20 02:21:00,55.4,55.0,29.65,West,271,2.0,8.0,98,0.00,,,0.33,oem by Ross Wheeler,2013-04-20 06:21:00,
2013-04-20 02:28:00,55.9,55.0,29.65,SE,129,5.0,11.0,98,0.00,,,0.33,weatherlink.com 1.10,2013-04-20 06:28:00,
2013-04-20 02:35:00,56.2,56.0,29.64,SE,124,3.0,11.0,99,0.01,,,0.34,oem by Ross Wheeler,2013-04-20 06:35:00,
2013-04-20 02:40:00,56.3,56.0,29.64,West,267,10.0,11.0,98,0.01,,,0.34,oem by Ross Wheeler,2013-04-20 06:40:00,
2013-04-20 02:46:00,56.2,56.0,29.64,NNW,346,1.0,10.0,98,0.01,,,0.34,oem by Ross Wheeler,2013-04-20 06:46:00,
2013-04-20 02:55:00,55.4,55.0,29.63,East,100,5.0,8.0,98,0.01,,,0.34,oem by Ross Wheeler,2013-04-20 06:55:00,
2013-04-20 03:01:00,55.5,55.0,29.64,SSE,155,3.0,9.0,98,0.01,,,0.34,oem by Ross Wheeler,2013-04-20 07:01:00,
2013-04-20 03:11:00,55.4,55.0,29.64,SE,143,1.0,9.0,98,0.01,,,0.34,oem by Ross Wheeler,2013-04-20 07:11:00,
2013-04-20 03:16:00,55.3,55.0,29.65,SW,226,1.0,9.0,98,0.01,,,0.34,oem by Ross Wheeler,2013-04-20 07:16:00,
2013-04-20 03:25:00,54.7,54.0,29.65,SSE,162,5.0,9.0,98,0.01,,,0.34,oem by Ross Wheeler,2013-04-20 07:25:00,
2013-04-20 03:31:00,54.3,54.0,29.64,SSW,200,1.0,7.0,98,0.00,,,0.34,oem by Ross Wheeler,2013-04-20 07:31:00,
2013-04-20 03:41:00,54.3,54.0,29.64,South,180,2.0,5.0,98,0.00,,,0.34,oem by Ross Wheeler,2013-04-20 07:41:00,
2013-04-20 03:46:00,54.1,54.0,29.63,West,269,1.0,6.0,98,0.01,,,0.35,oem by Ross Wheeler,2013-04-20 07:46:00,
2013-04-20 03:55:00,53.5,53.0,29.63,SSW,212,2.0,10.0,98,0.01,,,0.35,oem by Ross Wheeler,2013-04-20 07:55:00,
2013-04-20 04:01:00,53.0,52.0,29.64,WNW,301,3.0,5.0,97,0.01,,,0.35,oem by Ross Wheeler,2013-04-20 08:01:00,
2013-04-20 04:10:00,52.3,52.0,29.64,SW,235,2.0,6.0,97,0.01,,,0.35,oem by Ross Wheeler,2013-04-20 08:10:00,
2013-04-20 04:16:00,51.6,51.0,29.65,South,181,3.0,11.0,97,0.01,,,0.35,oem by Ross Wheeler,2013-04-20 08:16:00,
2013-04-20 04:25:00,50.5,50.0,29.66,WSW,243,2.0,8.0,97,0.01,,,0.35,oem by Ross Wheeler,2013-04-20 08:25:00,
2013-04-20 04:31:00,50.2,49.0,29.67,SW,214,4.0,14.0,97,0.01,,,0.35,oem by Ross Wheeler,2013-04-20 08:31:00,
2013-04-20 04:40:00,49.7,49.0,29.67,WNW,285,6.0,11.0,96,0.01,,,0.35,oem by Ross Wheeler,2013-04-20 08:40:00,
2013-04-20 04:46:00,49.6,49.0,29.67,SSW,212,1.0,11.0,96,0.00,,,0.35,oem by Ross Wheeler,2013-04-20 08:46:00,
2013-04-20 04:55:00,49.4,48.0,29.66,WSW,240,3.0,7.0,96,0.01,,,0.36,oem by Ross Wheeler,2013-04-20 08:55:00,
2013-04-20 05:01:00,49.4,49.0,29.67,West,271,3.0,6.0,97,0.01,,,0.36,oem by Ross Wheeler,2013-04-20 09:01:00,
2013-04-20 05:10:00,49.5,49.0,29.66,South,176,4.0,8.0,97,0.01,,,0.36,oem by Ross Wheeler,2013-04-20 09:10:00,
2013-04-20 05:16:00,49.5,49.0,29.67,SSW,205,4.0,8.0,97,0.02,,,0.37,oem by Ross Wheeler,2013-04-20 09:16:00,
2013-04-20 05:25:00,49.5,49.0,29.67,WSW,239,3.0,7.0,97,0.03,,,0.38,oem by Ross Wheeler,2013-04-20 09:25:00,
2013-04-20 05:31:00,49.5,49.0,29.68,SSE,158,4.0,8.0,97,0.03,,,0.38,oem by Ross Wheeler,2013-04-20 09:31:00,
2013-04-20 05:40:00,49.8,49.0,29.69,WSW,249,1.0,5.0,98,0.05,,,0.40,oem by Ross Wheeler,2013-04-20 09:40:00,
2013-04-20 05:46:00,50.1,50.0,29.70,WSW,250,5.0,5.0,98,0.06,,,0.41,oem by Ross Wheeler,2013-04-20 09:46:00,
2013-04-20 05:56:00,50.7,50.0,29.71,West,276,2.0,5.0,98,0.06,,,0.42,oem by Ross Wheeler,2013-04-20 09:56:00,
2013-04-20 06:01:00,50.9,50.0,29.71,WNW,283,4.0,6.0,98,0.07,,,0.43,oem by Ross Wheeler,2013-04-20 10:01:00,
2013-04-20 06:11:00,50.3,49.0,29.72,West,264,3.0,7.0,96,0.08,,,0.44,oem by Ross Wheeler,2013-04-20 10:11:00,
2013-04-20 06:16:00,50.0,49.0,29.73,NNW,329,3.0,8.0,96,0.07,,,0.44,oem by Ross Wheeler,2013-04-20 10:16:00,
2013-04-20 06:26:00,49.7,49.0,29.73,NW,314,1.0,5.0,96,0.07,,,0.45,oem by Ross Wheeler,2013-04-20 10:26:00,
2013-04-20 06:31:00,49.6,49.0,29.75,West,259,4.0,4.0,96,0.08,,,0.46,oem by Ross Wheeler,2013-04-20 10:31:00,
2013-04-20 06:40:00,49.4,48.0,29.75,NW,305,8.0,8.0,96,0.08,,,0.48,oem by Ross Wheeler,2013-04-20 10:40:00,
2013-04-20 06:46:00,49.0,48.0,29.76,WNW,295,5.0,10.0,95,0.08,,,0.49,oem by Ross Wheeler,2013-04-20 10:46:00,
2013-04-20 06:55:00,47.7,46.0,29.76,WNW,287,6.0,13.0,93,0.09,,,0.51,oem by Ross Wheeler,2013-04-20 10:55:00,
2013-04-20 07:01:00,47.3,46.0,29.77,NW,313,4.0,10.0,94,0.09,,,0.52,oem by Ross Wheeler,2013-04-20 11:01:00,
2013-04-20 07:10:00,46.7,45.0,29.77,WNW,290,5.0,9.0,94,0.09,,,0.53,oem by Ross Wheeler,2013-04-20 11:10:00,
2013-04-20 07:16:00,46.5,45.0,29.77,West,276,3.0,8.0,94,0.10,,,0.54,oem by Ross Wheeler,2013-04-20 11:16:00,
2013-04-20 07:26:00,46.1,45.0,29.78,NNW,347,1.0,6.0,94,0.09,,,0.55,oem by Ross Wheeler,2013-04-20 11:26:00,
2013-04-20 07:31:00,45.8,44.0,29.78,NW,326,2.0,10.0,93,0.08,,,0.55,oem by Ross Wheeler,2013-04-20 11:31:00,
2013-04-20 07:40:00,45.5,44.0,29.80,WNW,302,5.0,11.0,93,0.07,,,0.56,oem by Ross Wheeler,2013-04-20 11:40:00,
2013-04-20 07:46:00,45.3,43.0,29.79,North,1,4.0,11.0,93,0.07,,,0.56,oem by Ross Wheeler,2013-04-20 11:46:00,
2013-04-20 07:55:00,45.1,43.0,29.81,WNW,283,6.0,10.0,93,0.05,,,0.56,oem by Ross Wheeler,2013-04-20 11:55:00,
2013-04-20 08:01:00,45.0,43.0,29.81,NNE,23,4.0,7.0,93,0.04,,,0.56,oem by Ross Wheeler,2013-04-20 12:01:00,
2013-04-20 08:11:00,45.0,43.0,29.81,WSW,249,9.0,10.0,93,0.04,,,0.57,oem by Ross Wheeler,2013-04-20 12:11:00,
2013-04-20 08:16:00,44.9,43.0,29.81,NW,307,6.0,9.0,92,0.03,,,0.57,oem by Ross Wheeler,2013-04-20 12:16:00,
2013-04-20 08:25:00,44.8,43.0,29.82,WSW,243,4.0,13.0,92,0.02,,,0.57,oem by Ross Wheeler,2013-04-20 12:25:00,
2013-04-20 08:31:00,44.8,43.0,29.81,WSW,257,2.0,13.0,92,0.02,,,0.57,oem by Ross Wheeler,2013-04-20 12:31:00,
2013-04-20 08:40:00,44.8,42.0,29.81,NW,314,3.0,8.0,91,0.01,,,0.57,oem by Ross Wheeler,2013-04-20 12:40:00,
2013-04-20 08:46:00,44.9,43.0,29.81,WNW,303,5.0,10.0,91,0.01,,,0.57,oem by Ross Wheeler,2013-04-20 12:46:00,
2013-04-20 08:55:00,45.2,43.0,29.82,SW,233,7.0,9.0,90,0.01,,,0.57,oem by Ross Wheeler,2013-04-20 12:55:00,
2013-04-20 09:01:00,45.4,43.0,29.81,NW,317,3.0,8.0,90,0.01,,,0.57,oem by Ross Wheeler,2013-04-20 13:01:00,
2013-04-20 09:11:00,45.6,43.0,29.82,North,355,2.0,7.0,89,0.00,,,0.57,oem by Ross Wheeler,2013-04-20 13:11:00,
2013-04-20 09:16:00,45.7,42.0,29.82,WSW,246,5.0,9.0,88,0.00,,,0.57,oem by Ross Wheeler,2013-04-20 13:16:00,
2013-04-20 09:29:00,46.3,43.0,29.83,West,272,2.0,9.0,87,0.00,,,0.57,weatherlink.com 1.10,2013-04-20 13:29:00,
2013-04-20 09:36:00,46.8,43.0,29.84,WNW,300,1.0,8.0,87,0.00,,,0.57,oem by Ross Wheeler,2013-04-20 13:36:00,
2013-04-20 09:41:00,47.2,43.0,29.84,WSW,243,0.0,5.0,86,0.00,,,0.57,oem by Ross Wheeler,2013-04-20 13:41:00,
2013-04-20 09:46:00,47.5,44.0,29.85,West,264,0.0,5.0,86,0.00,,,0.57,oem by Ross Wheeler,2013-04-20 13:46:00,
2013-04-20 09:56:00,47.6,43.0,29.86,NNE,28,2.0,6.0,84,0.00,,,0.57,oem by Ross Wheeler,2013-04-20 13:56:00,
2013-04-20 10:01:00,47.6,43.0,29.86,SW,233,0.0,5.0,84,0.00,,,0.57,oem by Ross Wheeler,2013-04-20 14:01:00,
2013-04-20 10:11:00,48.4,43.0,29.88,West,259,3.0,7.0,82,0.00,,,0.57,oem by Ross Wheeler,2013-04-20 14:11:00,
2013-04-20 10:16:00,49.1,44.0,29.88,West,263,2.0,7.0,82,0.00,,,0.57,oem by Ross Wheeler,2013-04-20 14:16:00,
2013-04-20 10:21:00,49.5,44.0,29.88,SW,222,2.0,6.0,80,0.00,,,0.57,oem by Ross Wheeler,2013-04-20 14:21:00,
2013-04-20 10:31:00,50.4,43.0,29.88,WNW,285,2.0,6.0,75,0.00,,,0.57,weatherlink.com 1.10,2013-04-20 14:31:00,
2013-04-20 10:41:00,50.7,42.0,29.89,West,269,6.0,7.0,71,0.00,,,0.57,oem by Ross Wheeler,2013-04-20 14:41:00,
2013-04-20 10:46:00,51.0,43.0,29.89,SSW,208,0.0,7.0,73,0.00,,,0.57,oem by Ross Wheeler,2013-04-20 14:46:00,
2013-04-20 10:56:00,51.2,43.0,29.89,West,274,3.0,7.0,74,0.00,,,0.57,oem by Ross Wheeler,2013-04-20 14:56:00,
2013-04-20 11:01:00,51.2,44.0,29.89,SSE,166,0.0,6.0,77,0.00,,,0.57,oem by Ross Wheeler,2013-04-20 15:01:00,
2013-04-20 11:11:00,51.0,45.0,29.90,South,185,1.0,6.0,79,0.00,,,0.57,oem by Ross Wheeler,2013-04-20 15:11:00,
2013-04-20 11:16:00,50.9,45.0,29.90,WNW,284,3.0,4.0,81,0.00,,,0.57,oem by Ross Wheeler,2013-04-20 15:16:00,
2013-04-20 11:26:00,50.2,45.0,29.91,West,266,0.0,6.0,82,0.00,,,0.57,oem by Ross Wheeler,2013-04-20 15:26:00,
2013-04-20 11:31:00,50.1,45.0,29.91,WSW,253,2.0,7.0,82,0.00,,,0.57,oem by Ross Wheeler,2013-04-20 15:31:00,
2013-04-20 11:41:00,50.3,45.0,29.91,South,183,1.0,8.0,82,0.00,,,0.57,oem by Ross Wheeler,2013-04-20 15:41:00,
2013-04-20 11:46:00,50.2,45.0,29.91,West,269,3.0,12.0,83,0.00,,,0.57,oem by Ross Wheeler,2013-04-20 15:46:00,
2013-04-20 11:56:00,50.0,45.0,29.90,South,177,6.0,11.0,82,0.00,,,0.57,oem by Ross Wheeler,2013-04-20 15:56:00,
2013-04-20 12:01:00,50.2,45.0,29.91,WSW,246,4.0,13.0,82,0.00,,,0.57,oem by Ross Wheeler,2013-04-20 16:01:00,
2013-04-20 12:11:00,50.9,45.0,29.90,WSW,239,2.0,12.0,79,0.00,,,0.57,oem by Ross Wheeler,2013-04-20 16:11:00,
2013-04-20 12:16:00,51.3,45.0,29.90,WSW,249,3.0,12.0,79,0.00,,,0.57,oem by Ross Wheeler,2013-04-20 16:16:00,
2013-04-20 12:26:00,51.4,45.0,29.90,SSW,204,4.0,13.0,78,0.00,,,0.57,oem by Ross Wheeler,2013-04-20 16:26:00,
2013-04-20 12:31:00,51.4,44.0,29.90,SW,217,5.0,12.0,77,0.00,,,0.57,oem by Ross Wheeler,2013-04-20 16:31:00,
2013-04-20 12:41:00,51.6,45.0,29.89,SW,221,4.0,9.0,77,0.00,,,0.57,oem by Ross Wheeler,2013-04-20 16:41:00,
2013-04-20 12:46:00,52.0,45.0,29.89,SW,228,4.0,9.0,77,0.00,,,0.57,weatherlink.com 1.10,2013-04-20 16:46:00,
2013-04-20 12:56:00,52.2,45.0,29.89,South,170,8.0,10.0,76,0.00,,,0.57,oem by Ross Wheeler,2013-04-20 16:56:00,
2013-04-20 13:01:00,52.0,44.0,29.88,WSW,249,2.0,12.0,73,0.00,,,0.57,oem by Ross Wheeler,2013-04-20 17:01:00,
2013-04-20 13:11:00,52.5,45.0,29.89,WSW,242,4.0,10.0,75,0.00,,,0.57,oem by Ross Wheeler,2013-04-20 17:11:00,
2013-04-20 13:16:00,52.8,45.0,29.89,SSE,153,0.0,10.0,74,0.00,,,0.57,oem by Ross Wheeler,2013-04-20 17:16:00,
2013-04-20 13:26:00,52.6,45.0,29.89,SW,226,3.0,13.0,75,0.00,,,0.57,oem by Ross Wheeler,2013-04-20 17:26:00,
2013-04-20 13:31:00,52.7,45.0,29.89,SW,214,4.0,12.0,76,0.00,,,0.57,oem by Ross Wheeler,2013-04-20 17:31:00,
2013-04-20 13:41:00,52.9,44.0,29.89,SSW,194,2.0,11.0,73,0.00,,,0.57,oem by Ross Wheeler,2013-04-20 17:41:00,
2013-04-20 13:46:00,52.9,44.0,29.89,SSW,194,5.0,11.0,73,0.00,,,0.57,oem by Ross Wheeler,2013-04-20 17:46:00,
2013-04-20 13:56:00,52.5,43.0,29.89,South,185,2.0,13.0,71,0.00,,,0.57,oem by Ross Wheeler,2013-04-20 17:56:00,
2013-04-20 14:01:00,52.4,44.0,29.89,SSE,166,2.0,10.0,72,0.00,,,0.57,oem by Ross Wheeler,2013-04-20 18:01:00,
2013-04-20 14:11:00,52.3,43.0,29.89,WSW,240,4.0,10.0,71,0.00,,,0.57,oem by Ross Wheeler,2013-04-20 18:11:00,
2013-04-20 14:16:00,52.5,44.0,29.89,WSW,258,2.0,10.0,73,0.00,,,0.57,oem by Ross Wheeler,2013-04-20 18:16:00,
2013-04-20 14:25:00,52.2,43.0,29.89,WNW,301,3.0,12.0,71,0.00,,,0.57,oem by Ross Wheeler,2013-04-20 18:25:00,
2013-04-20 14:31:00,52.5,44.0,29.89,West,264,2.0,12.0,73,0.00,,,0.57,oem by Ross Wheeler,2013-04-20 18:31:00,
2013-04-20 14:41:00,52.8,44.0,29.90,SW,222,9.0,11.0,72,0.00,,,0.57,oem by Ross Wheeler,2013-04-20 18:41:00,
2013-04-20 14:46:00,52.6,44.0,29.89,WSW,240,1.0,10.0,73,0.00,,,0.57,oem by Ross Wheeler,2013-04-20 18:46:00,
2013-04-20 14:56:00,54.1,43.0,29.90,South,181,1.0,10.0,67,0.00,,,0.57,oem by Ross Wheeler,2013-04-20 18:56:00,
2013-04-20 15:01:00,55.9,41.0,29.89,WSW,252,5.0,12.0,58,0.00,,,0.57,oem by Ross Wheeler,2013-04-20 19:01:00,
2013-04-20 15:11:00,57.1,33.0,29.90,NW,313,2.0,13.0,40,0.00,,,0.57,oem by Ross Wheeler,2013-04-20 19:11:00,
2013-04-20 15:16:00,56.7,31.0,29.90,SE,146,1.0,13.0,38,0.00,,,0.57,oem by Ross Wheeler,2013-04-20 19:16:00,
2013-04-20 15:25:00,55.8,30.0,29.91,WSW,248,11.0,16.0,37,0.00,,,0.57,oem by Ross Wheeler,2013-04-20 19:25:00,
2013-04-20 15:31:00,55.7,30.0,29.91,WNW,290,3.0,16.0,38,0.00,,,0.57,oem by Ross Wheeler,2013-04-20 19:31:00,
2013-04-20 15:40:00,56.1,31.0,29.91,WSW,257,10.0,12.0,38,0.00,,,0.57,oem by Ross Wheeler,2013-04-20 19:40:00,
2013-04-20 15:46:00,56.3,31.0,29.91,WNW,287,5.0,10.0,38,0.00,,,0.57,oem by Ross Wheeler,2013-04-20 19:46:00,
2013-04-20 15:56:00,55.9,31.0,29.92,WSW,257,6.0,12.0,39,0.00,,,0.57,oem by Ross Wheeler,2013-04-20 19:56:00,
2013-04-20 16:01:00,55.8,31.0,29.92,SSE,155,4.0,12.0,39,0.00,,,0.57,oem by Ross Wheeler,2013-04-20 20:01:00,
2013-04-20 16:11:00,55.9,30.0,29.92,WNW,285,4.0,12.0,38,0.00,,,0.57,oem by Ross Wheeler,2013-04-20 20:11:00,
2013-04-20 16:16:00,56.1,31.0,29.93,West,263,5.0,12.0,39,0.00,,,0.57,oem by Ross Wheeler,2013-04-20 20:16:00,
2013-04-20 16:26:00,54.4,39.0,29.93,WNW,286,4.0,9.0,56,0.00,,,0.57,oem by Ross Wheeler,2013-04-20 20:26:00,
2013-04-20 16:31:00,53.1,40.0,29.94,SW,214,3.0,8.0,61,0.00,,,0.57,oem by Ross Wheeler,2013-04-20 20:31:00,
2013-04-20 16:41:00,51.8,41.0,29.94,WNW,293,3.0,9.0,66,0.00,,,0.57,oem by Ross Wheeler,2013-04-20 20:41:00,
2013-04-20 16:46:00,51.3,40.0,29.94,West,273,5.0,11.0,66,0.00,,,0.57,oem by Ross Wheeler,2013-04-20 20:46:00,
2013-04-20 16:56:00,51.0,40.0,29.95,SSW,210,4.0,11.0,65,0.00,,,0.57,oem by Ross Wheeler,2013-04-20 20:56:00,
2013-04-20 17:01:00,50.9,39.0,29.95,WSW,239,0.0,11.0,65,0.00,,,0.57,oem by Ross Wheeler,2013-04-20 21:01:00,
2013-04-20 17:10:00,51.2,39.0,29.96,SW,226,2.0,8.0,64,0.00,,,0.57,oem by Ross Wheeler,2013-04-20 21:10:00,
2013-04-20 17:16:00,51.5,39.0,29.96,SW,219,3.0,8.0,62,0.00,,,0.57,oem by Ross Wheeler,2013-04-20 21:16:00,
2013-04-20 17:26:00,51.2,38.0,29.97,SW,217,5.0,12.0,62,0.00,,,0.57,oem by Ross Wheeler,2013-04-20 21:26:00,
2013-04-20 17:31:00,51.2,38.0,29.97,West,281,4.0,11.0,62,0.00,,,0.57,oem by Ross Wheeler,2013-04-20 21:31:00,
2013-04-20 17:40:00,51.1,38.0,29.97,SSW,203,3.0,11.0,62,0.00,,,0.57,oem by Ross Wheeler,2013-04-20 21:40:00,
2013-04-20 17:46:00,51.2,39.0,29.98,South,187,1.0,11.0,63,0.00,,,0.57,oem by Ross Wheeler,2013-04-20 21:46:00,
2013-04-20 17:56:00,51.4,39.0,29.98,West,271,1.0,8.0,62,0.00,,,0.57,oem by Ross Wheeler,2013-04-20 21:56:00,
2013-04-20 18:01:00,51.3,38.0,29.98,West,264,7.0,9.0,61,0.00,,,0.57,oem by Ross Wheeler,2013-04-20 22:01:00,
2013-04-20 18:11:00,51.5,39.0,29.99,WSW,248,4.0,0.0,62,0.00,,,0.57,oem by Ross Wheeler,2013-04-20 22:11:00,
2013-04-20 18:16:00,51.5,38.0,29.99,WSW,255,4.0,8.0,61,0.00,,,0.57,oem by Ross Wheeler,2013-04-20 22:16:00,
2013-04-20 18:26:00,51.2,39.0,29.99,SW,224,4.0,8.0,63,0.00,,,0.57,oem by Ross Wheeler,2013-04-20 22:26:00,
2013-04-20 18:31:00,51.0,39.0,29.99,SW,220,1.0,6.0,64,0.00,,,0.57,oem by Ross Wheeler,2013-04-20 22:31:00,
2013-04-20 18:41:00,51.1,38.0,29.99,SSE,156,0.0,6.0,61,0.00,,,0.57,oem by Ross Wheeler,2013-04-20 22:41:00,
2013-04-20 18:46:00,51.2,38.0,29.99,West,271,1.0,6.0,60,0.00,,,0.57,oem by Ross Wheeler,2013-04-20 22:46:00,
2013-04-20 18:56:00,51.3,38.0,30.00,West,259,5.0,7.0,60,0.00,,,0.57,oem by Ross Wheeler,2013-04-20 22:56:00,
2013-04-20 19:01:00,51.5,38.0,30.00,SSW,207,3.0,8.0,61,0.00,,,0.57,oem by Ross Wheeler,2013-04-20 23:01:00,
2013-04-20 19:11:00,51.2,39.0,30.00,West,277,4.0,8.0,63,0.00,,,0.57,oem by Ross Wheeler,2013-04-20 23:11:00,
2013-04-20 19:18:00,50.7,39.0,30.01,WSW,258,2.0,8.0,65,0.00,,,0.57,weatherlink.com 1.10,2013-04-20 23:18:00,
2013-04-20 19:25:00,50.4,39.0,30.01,West,278,2.0,6.0,66,0.00,,,0.57,oem by Ross Wheeler,2013-04-20 23:25:00,
2013-04-20 19:31:00,50.1,40.0,30.02,West,264,1.0,4.0,68,0.00,,,0.57,oem by Ross Wheeler,2013-04-20 23:31:00,
2013-04-20 19:41:00,49.8,40.0,30.02,SW,233,0.0,2.0,70,0.00,,,0.57,oem by Ross Wheeler,2013-04-20 23:41:00,
2013-04-20 19:46:00,49.6,40.0,30.02,WSW,250,0.0,1.0,70,0.00,,,0.57,oem by Ross Wheeler,2013-04-20 23:46:00,
2013-04-20 19:51:00,49.4,40.0,30.02,WSW,250,0.0,1.0,71,0.00,,,0.57,oem by Ross Wheeler,2013-04-20 23:51:00,
2013-04-20 20:01:00,48.5,40.0,30.03,WSW,250,0.0,0.0,73,0.00,,,0.57,oem by Ross Wheeler,2013-04-21 00:01:00,
2013-04-20 20:11:00,47.9,40.0,30.04,WSW,250,0.0,0.0,75,0.00,,,0.57,oem by Ross Wheeler,2013-04-21 00:11:00,
2013-04-20 20:16:00,47.7,40.0,30.05,WSW,250,0.0,0.0,76,0.00,,,0.57,oem by Ross Wheeler,2013-04-21 00:16:00,
2013-04-20 20:21:00,47.6,41.0,30.05,WSW,250,0.0,0.0,78,0.00,,,0.57,oem by Ross Wheeler,2013-04-21 00:21:00,
2013-04-20 20:31:00,47.0,41.0,30.06,WSW,253,0.0,1.0,79,0.00,,,0.57,oem by Ross Wheeler,2013-04-21 00:31:00,
2013-04-20 20:41:00,47.2,41.0,30.07,West,266,0.0,1.0,80,0.00,,,0.57,oem by Ross Wheeler,2013-04-21 00:41:00,
2013-04-20 20:46:00,47.3,41.0,30.07,West,266,0.0,0.0,80,0.00,,,0.57,oem by Ross Wheeler,2013-04-21 00:46:00,
2013-04-20 20:56:00,47.4,41.0,30.08,West,281,1.0,3.0,77,0.00,,,0.57,oem by Ross Wheeler,2013-04-21 00:56:00,
2013-04-20 21:01:00,47.9,40.0,30.08,West,278,0.0,3.0,73,0.00,,,0.57,oem by Ross Wheeler,2013-04-21 01:01:00,
2013-04-20 21:11:00,49.3,36.0,30.09,WSW,249,2.0,4.0,61,0.00,,,0.57,oem by Ross Wheeler,2013-04-21 01:11:00,
2013-04-20 21:16:00,50.1,34.0,30.09,WNW,301,1.0,8.0,55,0.00,,,0.57,oem by Ross Wheeler,2013-04-21 01:16:00,
2013-04-20 21:26:00,51.0,32.0,30.10,West,274,1.0,8.0,49,0.00,,,0.57,oem by Ross Wheeler,2013-04-21 01:26:00,
2013-04-20 21:31:00,51.5,32.0,30.11,WNW,301,2.0,8.0,47,0.00,,,0.57,oem by Ross Wheeler,2013-04-21 01:31:00,
2013-04-20 21:41:00,52.0,31.0,30.12,West,263,0.0,6.0,45,0.00,,,0.57,oem by Ross Wheeler,2013-04-21 01:41:00,
2013-04-20 21:46:00,52.0,31.0,30.12,NW,318,1.0,6.0,44,0.00,,,0.57,oem by Ross Wheeler,2013-04-21 01:46:00,
2013-04-20 21:56:00,51.7,31.0,30.12,WNW,293,2.0,3.0,45,0.00,,,0.57,oem by Ross Wheeler,2013-04-21 01:56:00,
2013-04-20 22:01:00,51.4,31.0,30.13,WNW,297,2.0,4.0,46,0.00,,,0.57,oem by Ross Wheeler,2013-04-21 02:01:00,
2013-04-20 22:11:00,51.1,30.0,30.14,West,260,4.0,7.0,45,0.00,,,0.57,oem by Ross Wheeler,2013-04-21 02:11:00,
2013-04-20 22:16:00,51.2,30.0,30.14,NW,325,5.0,10.0,45,0.00,,,0.57,oem by Ross Wheeler,2013-04-21 02:16:00,
2013-04-20 22:26:00,51.0,30.0,30.15,WNW,296,1.0,9.0,45,0.00,,,0.57,oem by Ross Wheeler,2013-04-21 02:26:00,
2013-04-20 22:31:00,50.8,31.0,30.15,WNW,287,1.0,7.0,46,0.00,,,0.57,oem by Ross Wheeler,2013-04-21 02:31:00,
2013-04-20 22:41:00,50.0,30.0,30.15,North,1,0.0,2.0,47,0.00,,,0.57,oem by Ross Wheeler,2013-04-21 02:41:00,
2013-04-20 22:46:00,49.7,30.0,30.15,West,281,1.0,7.0,47,0.00,,,0.57,oem by Ross Wheeler,2013-04-21 02:46:00,
2013-04-20 22:56:00,49.6,29.0,30.16,East,85,1.0,8.0,46,0.00,,,0.57,oem by Ross Wheeler,2013-04-21 02:56:00,
2013-04-20 23:01:00,49.4,30.0,30.16,NW,316,2.0,7.0,47,0.00,,,0.57,oem by Ross Wheeler,2013-04-21 03:01:00,
2013-04-20 23:11:00,49.1,29.0,30.17,NW,313,2.0,10.0,46,0.00,,,0.57,oem by Ross Wheeler,2013-04-21 03:11:00,
2013-04-20 23:16:00,48.9,29.0,30.17,West,276,3.0,12.0,46,0.00,,,0.57,oem by Ross Wheeler,2013-04-21 03:16:00,
2013-04-20 23:26:00,48.5,29.0,30.18,NW,324,2.0,10.0,47,0.00,,,0.57,oem by Ross Wheeler,2013-04-21 03:26:00,
2013-04-20 23:31:00,48.3,29.0,30.19,WNW,302,2.0,10.0,48,0.00,,,0.57,oem by Ross Wheeler,2013-04-21 03:31:00,
2013-04-20 23:41:00,47.6,29.0,30.19,WNW,288,4.0,13.0,49,0.00,,,0.57,oem by Ross Wheeler,2013-04-21 03:41:00,
2013-04-20 23:46:00,47.2,29.0,30.20,WSW,248,9.0,15.0,49,0.00,,,0.57,oem by Ross Wheeler,2013-04-21 03:46:00,
2013-04-20 23:56:00,46.6,30.0,30.21,NNW,333,5.0,8.0,52,0.00,,,0.57,oem by Ross Wheeler,2013-04-21 03:56:00,